THOR ALTAIR DEB, 1931

Orbit data source: Space-Track

THOR ALTAIR DEB, 1931 is space debris in SSO originally from a launch on Fri, 10 Sep 1965 UTC launched from the Air Force Western Test Range (AFWTR). Debris objects in space refer to the collection of defunct objects orbiting the Earth. Examples of debris include non-operational satellites, rocket bodies, and fragments generated from explosions, collisions, or faulty payload assembly.

Loading next visibility...
Identifier
1931, 1965-072E
Orbit
SSO
Country
Flag of USUS
Related business
Manufacturer
Unknown
Mission
Spacecraft
Bus & Motor
Unknown
Mass
Unknown
Launch date (UTC)
1965-09-10 (61 years ago)
Launch vehicle
Unknown
Launch site
Air Force Western Test Range (AFWTR)
Object type
Payload
Rocket body
Debris
Shape & HBR
Unknown shape, 0.1 m
Radar Cross Section
Small (<0.1 m²)

Expand to show TLE details & history
Last TLE update: 22 hours ago

TLE from 22 hours ago
0 THOR ALTAIR DEB
1 01931U 65072E   26140.06289991  .00000595  00000-0  16642-3 0  9992
2 01931  99.0075 175.4408 0236616 159.1770 201.9252 14.35099101188819
Epoch: 2026-05-20T01:30Z
TLE epoch observation values (Epoch: 2026-05-20T01:30:34.552Z)
Latitude
-0.00004°
Longitude
-84.931°
Altitude
935.245 km
Speed
7.302 km/s
True Right ascension
11h 41m 45s
True Declination
0° 00' 00"
Sunlit
Object was in daylight at epoch
Visualization orbit readout
Latitude
Unknown
Longitude
Unknown
Altitude
Unknown
Speed
Unknown
Apparent Right ascension
Unknown
Apparent Declination
Unknown
Sunlit
N/A
Visualization observer readout
Local Sidereal Time
08:03:41
Azimuth
Unknown
Elevation
Unknown
Doppler factor
Unknown
Orbital elements
Apogee altitude
941.069 km
Perigee altitude
602.707 km
Semi-major axis
7,150.025 km
Eccentricity
0.02366
Inclination
99.0075°
RAAN
175.4408°
Arg. of periapsis
159.177°
True anomaly
200.93988°
Mean anomaly
201.9252°
Eccentric anomaly
201.42987°
Mean motion
3.5899 °/min
Orbital period
100.28 mins
BSTAR
0.00016642
Loading maneuver chart data...
Computing Atmospheric mass density...
Loading historical data...
Loading historical data...
Loading historical data...
Loading historical data...
Loading historical data...
Loading historical data...
Loading historical data...

Documentation

Showing up to 5 results
|